星链-3894 (STARLINK-3894 )

导读

STARLINK-3894是美国太空探索技术公司(SpaceX)在2022年5月6日发射的星链卫星,属于Starlink星座,该星座旨在为全球提供高速卫星互联网服务,覆盖偏远地区,补充地面网络覆盖不足,推动全球互联网接入普及。

基本信息
目录编号:
52499
目录名称:
STARLINK-3894
国际标识:
2022-049BA
轨道中心:
EARTH
卫星名称:
星链-3894
卫星全名:
星链-3894 (STARLINK-3894 )
卫星状态:
在轨 (已飞行1503 天)
发射日期:
2022-05-06 UTC
国别 :
美国 (US)
星等 :
--
轨道信息
数据来源 国际轨道数据
星历时间: 2026-06-17T12:00:02+0800
11小时前
查看轨道信息
半长轴: 6716.268km
偏心率: 0.0001076
轨道倾角: 53.220°
近地点辐角 86.852°
升交点赤经 313.350°
平近点角 252.713°
近地点: 337.408km
远地点: 338.854km
周期: 91.296分钟
每日圈数: 15.772871
详细信息
固有亮度:
5
最大亮度:
2.5
卫星平台:
Starlink v1.5
覆盖范围:
全球
运营商:
太空探索技术公司
运营商所在国:
美国
制造商(研发单位):
太空探索技术公司
制造商所在国:
美国
使用方式:
暂无
卫星简介
星链(Starlink)计划是由太空探索技术公司(SpaceX)提出的一个巨型低轨卫星互联网星座项目,计划在2019年至2024年间在太空搭建由约1.2万颗卫星组成的“星链”网络,其中1584颗将部署在地球上空550千米处的近地轨道,并从2020年开始工作。该卫星仍在工作。
2D轨道图
3D轨道图
轨道高度分析图
轨道倾角分析图
轨道综合分析图
查看轨道综合分析图